Weather History for Waterville, ME

Change the Weather History Date:

Friday, September 6, 2013

  Actual Average Record
Temperature  
Mean Temperature 54 °F -  
Max Temperature 66 °F 75 °F 90 °F (1983)
Min Temperature 41 °F 51 °F 37 °F (2000)
Degree Days  
Heating Degree Days 12    
Growing Degree Days 4 (Base 50)    
Moisture  
Dew Point 41 °F    
Average Humidity 66    
Maximum Humidity 93    
Minimum Humidity 39    
Precipitation  
Precipitation 0.00 in - - ()
Sea Level Pressure  
Sea Level Pressure 30.09 in    
Wind  
Wind Speed 4 mph (SW)    
Max Wind Speed 13 mph    
Max Gust Speed 16 mph    
Visibility 10 miles    
Events      
Averages and records for this station are not official NWS values.
T = Trace of Precipitation, MM = Missing Value Source: NWS Daily Summary

Daily Weather History Graph

Daily Weather History Graph

Search for Another Location

Airport:

Trip Planner

Search our weather history database for the weather conditions in past years. The results will help you decide how hot, cold, wet, or windy it might be!

Date:

Astronomy

Sep. 06, 2013 Rise Set
Actual Time 6:07 AM EDT 7:05 PM EDT
Civil Twilight 5:37 AM EDT 7:35 PM EDT
Nautical Twilight 5:02 AM EDT 8:10 PM EDT
Astronomical Twilight 4:24 AM EDT 8:47 PM EDT
Moon 7:21 AM EDT (9/6) 7:22 PM EDT (9/6)
Length of Visible Light 13h 57m
Length of Day
12h 58m
New Moon, 1% of the Moon is Illuminated
Sep 6
New Moon
Sep 12
First Quarter
Sep 19
Full
Sep 26
Last Quarter
Oct 4
New

Hourly Weather History & Observations

Time (EDT) Temp. Windchill Dew Point Humidity Pressure Visibility Wind Dir Wind Speed Gust Speed Precip Events Conditions
12:15 AM 48.2 °F - 39.2 °F 71% 30.09 in 10.0 mi WNW 4.6 mph - N/A   Clear
12:35 AM 48.2 °F - 37.4 °F 66% 30.09 in 10.0 mi NW 4.6 mph - N/A   Clear
12:55 AM 46.4 °F - 39.2 °F 76% 30.09 in 10.0 mi Calm Calm - N/A   Clear
1:15 AM 44.6 °F - 39.2 °F 81% 30.10 in 10.0 mi Calm Calm - N/A   Clear
1:35 AM 44.6 °F 42.2 °F 39.2 °F 81% 30.09 in 10.0 mi WNW 4.6 mph - N/A   Clear
1:55 AM 46.4 °F 44.3 °F 39.2 °F 76% 30.09 in 10.0 mi WNW 4.6 mph - N/A   Clear
2:15 AM 46.4 °F - 39.2 °F 76% 30.10 in 10.0 mi Calm Calm - N/A   Clear
2:35 AM 44.6 °F - 39.2 °F 81% 30.10 in 10.0 mi Calm Calm - N/A   Clear
2:55 AM 42.8 °F 41.1 °F 39.2 °F 87% 30.10 in 10.0 mi SSE 3.5 mph - N/A   Clear
3:15 AM 42.8 °F 41.1 °F 39.2 °F 87% 30.10 in 10.0 mi WSW 3.5 mph - N/A   Clear
3:35 AM 42.8 °F - 39.2 °F 87% 30.10 in 10.0 mi Calm Calm - N/A   Clear
3:55 AM 42.8 °F - 39.2 °F 87% 30.10 in 10.0 mi Calm Calm - N/A   Clear
4:15 AM 42.8 °F - 39.2 °F 87% 30.11 in 10.0 mi Calm Calm - N/A   Clear
4:35 AM 41.0 °F - 39.2 °F 93% 30.11 in 10.0 mi Calm Calm - N/A   Clear
4:55 AM 41.0 °F - 37.4 °F 87% 30.12 in 10.0 mi Calm Calm - N/A   Clear
5:15 AM 41.0 °F - 39.2 °F 93% 30.12 in 10.0 mi Calm Calm - N/A   Clear
5:35 AM 41.0 °F 38.0 °F 39.2 °F 93% 30.13 in 10.0 mi WNW 4.6 mph - N/A   Clear
5:55 AM 42.8 °F - 39.2 °F 87% 30.13 in 10.0 mi Calm Calm - N/A   Clear
6:15 AM 41.0 °F - 39.2 °F 93% 30.13 in 10.0 mi Calm Calm - N/A   Clear
6:35 AM 41.0 °F - 39.2 °F 93% 30.14 in 3.0 mi Calm Calm - N/A   Clear
6:55 AM 42.8 °F - 39.2 °F 87% 30.15 in 0.2 mi Calm Calm - N/A   Unknown
7:15 AM 42.8 °F - 41.0 °F 93% 30.15 in 10.0 mi Calm Calm - N/A   Clear
7:35 AM 44.6 °F - 42.8 °F 93% 30.15 in 10.0 mi Calm Calm - N/A   Clear
7:55 AM 48.2 °F - 44.6 °F 87% 30.15 in 10.0 mi Calm Calm - N/A   Clear
8:15 AM 51.8 °F - 44.6 °F 76% 30.16 in 10.0 mi West 3.5 mph - N/A   Clear
8:35 AM 53.6 °F - 41.0 °F 62% 30.16 in 10.0 mi West 5.8 mph - N/A   Clear
8:55 AM 55.4 °F - 39.2 °F 54% 30.16 in 10.0 mi West 4.6 mph - N/A   Clear
9:15 AM 55.4 °F - 39.2 °F 54% 30.17 in 10.0 mi WNW 6.9 mph - N/A   Clear
9:35 AM 57.2 °F - 41.0 °F 55% 30.17 in 10.0 mi WSW 6.9 mph - N/A   Clear
9:55 AM 57.2 °F - 39.2 °F 51% 30.16 in 10.0 mi West 3.5 mph - N/A   Clear
10:15 AM 57.2 °F - 39.2 °F 51% 30.16 in 10.0 mi SW 6.9 mph - N/A   Clear
10:35 AM 59.0 °F - 35.6 °F 42% 30.16 in 10.0 mi West 4.6 mph - N/A   Clear
10:55 AM 59.0 °F - 35.6 °F 42% 30.16 in 10.0 mi West 10.4 mph - N/A   Clear
11:15 AM 60.8 °F - 35.6 °F 39% 30.15 in 10.0 mi WSW 8.1 mph - N/A   Clear
11:35 AM 60.8 °F - 37.4 °F 42% 30.15 in 10.0 mi SW 9.2 mph - N/A   Clear
11:55 AM 60.8 °F - 37.4 °F 42% 30.15 in 10.0 mi WSW 5.8 mph - N/A   Clear
12:15 PM 60.8 °F - 37.4 °F 42% 30.14 in 10.0 mi SSW 8.1 mph - N/A   Clear
12:35 PM 62.6 °F - 37.4 °F 39% 30.13 in 10.0 mi SSW 8.1 mph - N/A   Clear
12:55 PM 62.6 °F - 39.2 °F 42% 30.12 in 10.0 mi WSW 4.6 mph - N/A   Clear
1:15 PM 62.6 °F - 39.2 °F 42% 30.11 in 10.0 mi SSW 9.2 mph - N/A   Clear
1:35 PM 62.6 °F - 39.2 °F 42% 30.11 in 10.0 mi SSW 5.8 mph - N/A   Clear
1:55 PM 62.6 °F - 39.2 °F 42% 30.10 in 10.0 mi WSW 10.4 mph - N/A   Clear
2:15 PM 64.4 °F - 39.2 °F 40% 30.09 in 10.0 mi WSW 6.9 mph - N/A   Clear
2:35 PM 64.4 °F - 39.2 °F 40% 30.09 in 10.0 mi SW 9.2 mph - N/A   Clear
2:55 PM 64.4 °F - 39.2 °F 40% 30.08 in 10.0 mi SSW 6.9 mph 16.1 mph N/A   Clear
3:15 PM 64.4 °F - 41.0 °F 42% 30.07 in 10.0 mi SW 10.4 mph - N/A   Clear
3:35 PM 66.2 °F - 42.8 °F 43% 30.06 in 10.0 mi SW 12.7 mph 16.1 mph N/A   Clear
3:55 PM 66.2 °F - 42.8 °F 43% 30.05 in 10.0 mi SW 9.2 mph 16.1 mph N/A   Clear
4:15 PM 66.2 °F - 42.8 °F 43% 30.05 in 10.0 mi West 8.1 mph - N/A   Clear
4:35 PM 66.2 °F - 42.8 °F 43% 30.04 in 10.0 mi SW 8.1 mph - N/A   Clear
5:15 PM 66.2 °F - 42.8 °F 43% 30.04 in 10.0 mi SSW 9.2 mph - N/A   Clear
5:35 PM 64.4 °F - 44.6 °F 49% 30.03 in 10.0 mi SW 9.2 mph - N/A   Clear
5:55 PM 64.4 °F - 44.6 °F 49% 30.03 in 10.0 mi SW 8.1 mph - N/A   Clear
6:15 PM 64.4 °F - 44.6 °F 49% 30.03 in 10.0 mi SSW 4.6 mph - N/A   Clear
6:35 PM 62.6 °F - 46.4 °F 55% 30.03 in 10.0 mi SSW 3.5 mph - N/A   Clear
6:55 PM 60.8 °F - 44.6 °F 55% 30.02 in 10.0 mi South 5.8 mph - N/A   Clear
7:15 PM 57.2 °F - 44.6 °F 63% 30.02 in 10.0 mi SSW 4.6 mph - N/A   Clear
7:35 PM 57.2 °F - 44.6 °F 63% 30.01 in 10.0 mi SSW 3.5 mph - N/A   Clear
7:55 PM 55.4 °F - 46.4 °F 72% 30.01 in 10.0 mi SSW 3.5 mph - N/A   Clear
8:15 PM 55.4 °F - 46.4 °F 72% 30.02 in 10.0 mi SW 3.5 mph - N/A   Clear
8:35 PM 53.6 °F - 46.4 °F 77% 30.02 in 10.0 mi SSW 5.8 mph - N/A   Clear
8:55 PM 53.6 °F - 46.4 °F 77% 30.02 in 10.0 mi SSW 4.6 mph - N/A   Clear
9:15 PM 53.6 °F - 46.4 °F 77% 30.01 in 10.0 mi South 4.6 mph - N/A   Clear
9:35 PM 53.6 °F - 46.4 °F 77% 30.01 in 10.0 mi SSW 3.5 mph - N/A   Clear
9:55 PM 51.8 °F - 46.4 °F 82% 30.01 in 10.0 mi SSW 3.5 mph - N/A   Clear
10:15 PM 51.8 °F - 46.4 °F 82% 30.00 in 10.0 mi South 3.5 mph - N/A   Clear
10:35 PM 51.8 °F - 46.4 °F 82% 30.00 in 10.0 mi SSW 3.5 mph - N/A   Clear
10:55 PM 51.8 °F - 46.4 °F 82% 30.00 in 10.0 mi SW 3.5 mph - N/A   Clear
11:15 PM 51.8 °F - 46.4 °F 82% 30.00 in 10.0 mi SSW 4.6 mph - N/A   Clear
11:35 PM 51.8 °F - 46.4 °F 82% 30.00 in 10.0 mi SW 3.5 mph - N/A   Clear
11:55 PM 50.0 °F - 46.4 °F 87% 29.99 in 10.0 mi SSW 4.6 mph - N/A   Clear